Starlink 30612

operational
NORAD ID: 58106 Int'l Des: 2023-161 Owner: SPXS Country: US Constellation: starlink
LEOCIRCULAR

About Starlink 30612

Description loading...

Live Position

Loading 3D Globe...

Upcoming Passes

Altitude History

Altitude vs Time

uPlot chart will show altitude changes over time

Two-Line Element Set

1 58106U 23161K 25347.28472934 -.00000465 00000-0 -35832-5 0 9996
2 58106 53.1613 193.8671 0001454 95.6910 264.4257 15.30188252121379
Epoch: Dec 13, 2025 • Age: 19 hours

Current Status

Altitude 488.3 km
Velocity 7.62 km/s
Sub-Earth Point -37.68°S, 50.74°E
Launch Date Oct 21, 2023
Age 2.1 years
Type internet

Technical Details

Classification Payload
Mass 730.00 kg
Dry Mass 700.00 kg
Total Mass 730.00 kg
Length 0.30 m
Diameter 4.10 m
Span 29.00 m
Shape Box + pan
Manufacturer SPXS
Bus Type Starlink V2M
Phase Status In Orbit
Owner/State SPXS/US

Large Constellations

Loading constellations...